This is the latest recevied weather packets stored in our database for station/object KD0TNH-13. If no packets are shown the sender has not sent any weather packets the latest 10 day(s).
| Time | Temp. | Humidity | Pressure | Rain* | Wind** | Luminosity | Snow |
|---|---|---|---|---|---|---|---|
| 1787934782 | 22.78° C | 64% | 29.4 hPa | 0 mm | 0.89 m/s, 85° | - | - |
| 1787934481 | 22.78° C | 65% | 29.4 hPa | 0 mm | 0.45 m/s, 193° | - | - |
| 1787934181 | 22.22° C | 67% | 29.4 hPa | 0 mm | 0 m/s | - | - |
| 1787933880 | 22.22° C | 70% | 29.4 hPa | 0 mm | 0.89 m/s, 265° | - | - |
| 1787933580 | 22.22° C | 74% | 29.4 hPa | 0 mm | 0.45 m/s, 174° | - | - |
| 1787933279 | 21.67° C | 73% | 29.4 hPa | 0 mm | 0.89 m/s, 205° | - | - |
| 1787932978 | 21.67° C | 75% | 29.4 hPa | 0 mm | 0.89 m/s, 174° | - | - |
| 1787932678 | 22.22° C | 75% | 29.4 hPa | 0 mm | 0.89 m/s, 232° | - | - |
| 1787932377 | 22.78° C | 73% | 29.4 hPa | 0 mm | 0.89 m/s, 182° | - | - |
| 1787932076 | 22.78° C | 72% | 29.4 hPa | 0 mm | 0.89 m/s, 203° | - | - |
| 1787931776 | 22.78° C | 74% | 29.4 hPa | 0 mm | 0.45 m/s, 117° | - | - |
| 1787931475 | 22.78° C | 72% | 29.4 hPa | 0 mm | 0.45 m/s, 199° | - | - |
| 1787931175 | 22.78° C | 72% | 29.4 hPa | 0 mm | 0.45 m/s, 76° | - | - |
| 1787930874 | 22.78° C | 73% | 29.4 hPa | 0 mm | 0 m/s | - | - |
| 1787930574 | 22.22° C | 71% | 29.4 hPa | 0 mm | 0.45 m/s, 189° | - | - |
| 1787930273 | 21.67° C | 73% | 29.4 hPa | 0 mm | 0.89 m/s, 182° | - | - |
| 1787929973 | 21.67° C | 75% | 29.4 hPa | 0 mm | 0.45 m/s, 197° | - | - |
| 1787929672 | 21.67° C | 78% | 29.4 hPa | 0 mm | 0.45 m/s, 235° | - | - |
| 1787929371 | 21.11° C | 78% | 29.4 hPa | 0 mm | 0.89 m/s, 200° | - | - |
| 1787929071 | 21.11° C | 80% | 29.4 hPa | 0 mm | 0.45 m/s, 212° | - | - |
| 1787928770 | 21.11° C | 81% | 29.4 hPa | 0 mm | 0.89 m/s, 155° | - | - |
| 1787928470 | 21.67° C | 80% | 29.4 hPa | 0 mm | 0.89 m/s, 219° | - | - |
| 1787928169 | 21.67° C | 80% | 29.4 hPa | 0 mm | 0 m/s | - | - |
| 1787927868 | 21.67° C | 79% | 29.4 hPa | 0 mm | 0.45 m/s, 336° | - | - |
| 1787927568 | 21.67° C | 79% | 29.4 hPa | 0 mm | 0.45 m/s, 194° | - | - |
* Rain latest hour (hover to see other rain measurements)
** Current wind speed in m/s (hover to see current wind gust speed)